LIEALFKB

Guest
Details From LIEA - Alghero
To LFKB - Bastia Poretta
Flight Number -
Tags decoded
Created
Modified
Stats Distance 147 nm / 273 km
Max Altitude 0 ft / 0 m
Waypoints 5
Social Downloads 13
Likes 0
Share

Download

Looking for another format? Having issues loading an existing format? Contact us
Advertisement - Login to hide

Notes

Requested: LIEA POULP MASAL BREMO LFKB

Route

LIEA POULP MASAL BREMO LFKB

ID Type Via Altitude (ft/m) Position (lat/lon) Dist (leg/tot) Name
O LIEA APT - 0 / 0 40.63210 / 8.29077 - / 0 nm Alghero
POULP FIX - 0 / 0 41.33330 / 8.57000 43 / 43 nm
MASAL FIX - 0 / 0 41.46800 / 9.36753 36 / 80 nm
BREMO FIX - 0 / 0 42.33330 / 9.57694 52 / 133 nm
O LFKB APT - 0 / 0 42.55260 / 9.48375 13 / 147 nm Bastia Poretta

Altitude Profile

Advertisement - Login to hide

LIEA

Details ICAO LIEA (AHO)
Name Alghero-Fertilia "Riviera del Corallo"
Region Italy
Timezone Europe/Rome (UTC+1.0)
Stats Elevation 88 ft / 27 m (AMSL)
Location 40.632100° 8.290780°
Runways 1
Magnetic Variation 2.842° E

METAR

LIEA 270220Z 25010KT 9999 FEW030 13/12 Q1000

Decode

TAF

TAF LIEA 262300Z 2700/2724 23018KT 6000 RA SCT020 TEMPO 2709/2712 4000 TSRA

Decode

Departure Runways

ID Width Length Bearing (true/mag) Surface Threshold Overrun Markings Lighting
02 148 ft / 45 m 9,852 ft / 3,003 m 24.50° / 21.66° ASPHALT 0 ft / 0 m 0 ft / 0 m PREC-APP CENTERLINE EDGE THRESHOLD MALSF REIL-OMNI
20 148 ft / 45 m 9,852 ft / 3,003 m 204.51° / 201.67° ASPHALT 0 ft / 0 m 0 ft / 0 m PREC-APP CENTERLINE EDGE THRESHOLD MALSF REIL-OMNI

LFKB

Details ICAO LFKB (BIA)
Name Bastia Poretta
Region France
Timezone Europe/Paris (UTC+1.0)
Stats Elevation 24 ft / 7 m (AMSL)
Location 42.552600° 9.483750°
Runways 1
Magnetic Variation 3.154° E

METAR

LFKB 270230Z AUTO VRB02KT 9999 BKN011 BKN150 OVC240 11/10 Q0999 BECMG 18015KT RA SCT030

Decode

TAF

TAF LFKB 270200Z 2703/2803 VRB05KT 9999 BKN020 TX14/2712Z TN11/2703Z BECMG 2707/2709 18012KT BECMG 2721/2724 24004KT BECMG 2800/2803 RA BKN008

Decode

Destination Runways

ID Width Length Bearing (true/mag) Surface Threshold Overrun Markings Lighting
16 148 ft / 45 m 8,273 ft / 2,522 m 162.83° / 159.68° ASPHALT 0 ft / 0 m 102 ft / 31 m APP CENTERLINE EDGE THRESHOLD TDZ REIL-OMNI
34 148 ft / 45 m 8,273 ft / 2,522 m 342.84° / 339.69° ASPHALT 0 ft / 0 m 0 ft / 0 m PREC-APP CENTERLINE EDGE THRESHOLD TDZ REIL-OMNI

Approach Navaids

Runway Type Ident Frequency Range Bearing (true/mag) Slope Elevation
34 GS BP 111.35 MHz 10 nm / 19 km 343.62° / 340.47 ° 3.00° 25 ft / 8 m (AMSL)
34 DME BP 111.35 MHz 18 nm / 33 km - - 69 ft / 21 m (AMSL)
34 LOC-ILS BP 111.35 MHz 18 nm / 33 km 342.81° / 339.66 ° - 25 ft / 8 m (AMSL)

Popular Alternatives